Probability
100 100 100 100 100 97 97 100 97 97 100 100 100 100 100 100 100 100 100 100 100 100 100 100 100 100 100 100 100 100 100 100 100 100 100 100 97 97 97 97 97 77 16
100 100 100 100 97 100 100 100 100 100 100 100 100 100 100 100 100 100 94 100 100 100 100 100 97 100 100 100 100 100 100 100 100 100 100 100 97 97 97 97 97 90 10
100 100 97 97 97 97 97 100 100 100 100 100 100 100 100 100 100 94 90 90 97 100 97 94 97 100 100 100 100 100 100 100 100 100 100 100 94 94 97 97 97 97 26
77 87 71 71 90 94 97 97 100 97 97 97 100 100 100 100 100 100 90 90 90 87 94 94 94 97 97 100 100 100 100 100 100 100 100 100 100 90 94 97 97 94 39
29 35 35 42 48 45 58 61 74 94 97 100 100 100 100 100 100 97 97 94 90 94 90 94 94 94 94 94 100 100 100 100 100 100 100 100 100 100 94 90 97 71 32
16 13 6 16 13 13 29 55 68 87 94 97 90 90 90 90 97 100 97 90 94 90 87 90 94 90 90 97 100 100 100 100 100 100 100 100 100 100 97 65 39 32 13
10 29 10 10 13 3 16 19 32 58 71 74 81 81 81 84 87 94 97 94 97 94 94 90 90 90 87 84 87 97 100 100 100 100 100 100 100 100 100 65 16 0 0
13 10 16 10 3 29 26 29 61 45 26 39 52 52 39 35 81 74 94 94 90 87 87 74 94 94 90 81 58 68 97 100 100 100 100 100 100 100 100 84 23 3 0
6 13 10 6 6 3 0 13 42 48 26 29 39 45 29 19 26 32 81 94 100 97 87 77 77 87 81 84 87 19 65 74 87 94 100 97 90 71 52 52 35 10 3
6 0 0 0 10 6 10 13 10 19 55 32 52 81 68 61 32 19 35 81 97 100 94 71 52 65 71 68 81 19 19 23 42 58 74 81 77 32 10 10 61 58 10
6 0 0 0 6 3 10 23 32 29 26 35 32 45 58 81 81 55 19 32 71 90 94 94 84 77 68 61 71 26 0 0 0 13 29 26 29 29 19 32 65 84 68
0 0 0 0 3 3 16 23 26 26 45 52 65 48 55 55 55 68 58 58 61 74 94 90 81 74 58 48 16 0 0 0 0 0 0 0 3 10 16 23 42 65 71
0 0 0 3 10 10 16 23 29 39 35 52 65 71 71 77 74 74 65 58 71 81 94 74 58 55 19 39 23 0 0 0 0 0 0 0 0 0 3 3 6 6 29
0 0 3 3 6 3 0 13 13 26 35 55 48 84 97 87 84 84 87 94 97 90 90 39 32 26 19 23 0 0 0 0 0 0 0 0 0 0 0 0 0 0 0
0 0 0 0 0 3 3 10 6 13 19 35 52 68 90 90 94 97 100 100 100 90 65 32 19 13 16 13 0 0 0 0 0 0 0 0 0 0 0 0 0 0 0
29 13 0 0 0 0 0 10 6 6 16 39 65 68 77 71 74 81 97 97 94 90 61 23 13 6 6 3 0 3 0 0 0 0 0 0 0 0 0 0 0 0 0
32 26 6 0 0 0 0 6 3 6 13 32 39 42 55 65 74 77 84 90 84 84 32 6 3 3 3 0 0 0 0 0 0 0 0 0 0 0 0 0 0 0 0
35 26 10 0 0 0 0 0 0 0 0 10 6 13 19 26 39 42 52 52 52 29 23 3 0 0 0 0 0 0 0 0 0 0 0 0 0 0 0 0 0 0 0
26 23 13 0 0 0 0 0 0 0 0 0 0 3 10 16 19 19 16 10 16 6 6 0 0 0 0 0 0 0 0 0 0 0 0 0 0 0 0 0 0 0 0
19 16 10 0 0 0 0 0 0 0 0 0 0 0 6 0 3 6 3 3 6 6 0 0 0 0 0 0 0 0 0 0 0 0 0 0 0 0 0 0 0 0 0
0 6 3 0 0 0 0 0 0 0 0 0 0 0 0 0 0 0 0 3 0 0 0 0 0 0 0 0 0 0 0 0 0 0 0 0 0 0 0 0 0 0 0
0 3 3 0 0 0 0 0 0 0 0 0 0 0 0 0 0 0 0 0 0 0 0 0 0 0 0 0 0 0 0 0 0 0 0 0 0 0 0 0 0 0 0
0 0 0 0 0 0 0 0 0 0 0 0 0 0 0 0 0 0 0 0 0 0 0 0 0 0 0 0 0 0 0 0 0 0 0 0 0 0 0 0 0 0 0
0 0 0 0 0 0 0 0 0 0 0 0 0 0 0 0 0 0 0 0 0 0 0 0 0 0 0 0 0 0 0 0 0 0 0 0 0 0 0 0 0 0 0
0 0 0 0 0 0 0 0 0 0 0 0 0 0 0 0 0 0 0 0 0 0 0 0 0 0 0 0 0 0 0 0 0 0 0 0 0 0 0 0 0 0 0
0 0 0 0 0 0 0 0 0 0 0 0 0 0 0 0 0 0 0 0 0 0 0 0 0 0 0 0 0 0 0 0 0 0 0 0 0 0 0 0 0 0 0
Height
5877 5877 5876 5875 5873 5872 5870 5869 5868 5867 5867 5866 5866 5865 5865 5864 5864 5864 5865 5865 5866 5867 5868 5869 5869 5870 5870 5871 5872 5873 5873 5874 5875 5876 5877 5877 5878 5879 5880 5881 5882 5883 5883
5869 5868 5868 5866 5865 5863 5862 5861 5860 5858 5858 5858 5858 5857 5857 5856 5856 5856 5856 5857 5858 5859 5860 5862 5863 5864 5865 5866 5867 5868 5869 5870 5871 5872 5873 5874 5875 5876 5877 5878 5879 5879 5880
5862 5861 5860 5859 5857 5855 5854 5853 5851 5850 5849 5849 5849 5848 5848 5848 5848 5848 5848 5849 5850 5851 5852 5854 5856 5857 5858 5859 5861 5862 5863 5865 5866 5867 5869 5870 5871 5872 5873 5874 5875 5875 5876
5855 5853 5852 5851 5849 5847 5846 5845 5844 5842 5841 5841 5840 5840 5840 5840 5840 5840 5840 5841 5841 5842 5844 5845 5847 5849 5851 5852 5853 5855 5857 5858 5860 5861 5863 5864 5865 5867 5868 5869 5870 5871 5872
5848 5847 5845 5843 5841 5839 5837 5836 5834 5833 5832 5831 5831 5831 5831 5831 5831 5832 5832 5833 5833 5834 5835 5836 5838 5839 5842 5844 5845 5847 5849 5851 5852 5854 5856 5858 5859 5861 5862 5863 5865 5866 5867
5842 5840 5838 5836 5833 5830 5828 5826 5825 5823 5822 5822 5821 5821 5822 5822 5822 5823 5824 5824 5825 5826 5827 5827 5829 5830 5832 5835 5836 5838 5840 5842 5844 5846 5848 5850 5852 5854 5856 5857 5859 5860 5861
5836 5834 5831 5829 5826 5823 5820 5817 5815 5814 5813 5812 5811 5812 5812 5813 5813 5814 5814 5815 5816 5817 5818 5819 5820 5821 5823 5825 5827 5829 5831 5832 5835 5837 5839 5841 5843 5846 5848 5850 5852 5854 5855
5830 5828 5825 5822 5818 5815 5812 5808 5806 5805 5804 5803 5802 5802 5803 5804 5804 5805 5805 5806 5807 5808 5809 5810 5811 5813 5814 5815 5817 5819 5821 5823 5825 5827 5830 5832 5834 5836 5839 5842 5845 5847 5849
5824 5821 5818 5815 5811 5807 5804 5800 5797 5795 5794 5793 5792 5792 5793 5795 5795 5796 5797 5798 5798 5799 5800 5801 5803 5804 5805 5806 5808 5810 5812 5813 5815 5817 5819 5822 5824 5827 5829 5833 5836 5839 5841
5817 5814 5811 5808 5804 5800 5796 5792 5788 5785 5783 5783 5782 5782 5783 5785 5786 5787 5788 5789 5790 5790 5791 5792 5794 5795 5796 5797 5798 5800 5802 5804 5805 5807 5809 5811 5814 5816 5819 5823 5827 5830 5833
5810 5807 5804 5800 5797 5793 5788 5784 5780 5777 5774 5772 5772 5772 5773 5775 5776 5778 5779 5780 5781 5781 5782 5783 5784 5786 5787 5788 5789 5791 5793 5794 5796 5797 5799 5801 5803 5806 5809 5813 5817 5820 5823
5802 5799 5796 5793 5789 5785 5781 5777 5772 5769 5765 5763 5762 5762 5763 5765 5766 5768 5770 5771 5771 5773 5773 5774 5775 5776 5778 5779 5780 5782 5783 5785 5786 5788 5790 5792 5794 5796 5799 5802 5806 5810 5813
5794 5792 5789 5785 5782 5778 5774 5770 5765 5761 5758 5755 5753 5753 5753 5755 5756 5758 5760 5761 5762 5764 5764 5765 5766 5768 5769 5770 5771 5773 5774 5776 5777 5779 5781 5783 5785 5787 5790 5793 5796 5800 5804
5786 5783 5780 5777 5774 5771 5767 5763 5758 5754 5751 5748 5745 5744 5744 5745 5747 5748 5750 5752 5753 5755 5756 5757 5758 5759 5761 5762 5762 5764 5765 5767 5769 5771 5772 5774 5776 5778 5780 5783 5787 5791 5795
5776 5774 5772 5769 5766 5763 5760 5756 5752 5748 5744 5741 5738 5737 5736 5736 5737 5739 5741 5743 5745 5746 5747 5749 5750 5751 5752 5753 5754 5756 5757 5759 5760 5762 5764 5765 5767 5769 5771 5774 5777 5782 5786
5766 5764 5763 5760 5758 5755 5752 5748 5745 5741 5737 5734 5732 5729 5728 5728 5729 5730 5732 5734 5735 5737 5739 5740 5742 5743 5744 5745 5747 5748 5749 5751 5753 5755 5756 5758 5759 5761 5762 5765 5768 5772 5776
5756 5754 5753 5751 5748 5746 5744 5741 5738 5734 5731 5728 5725 5723 5721 5720 5720 5722 5723 5725 5726 5728 5730 5732 5733 5735 5736 5738 5740 5741 5742 5744 5746 5748 5749 5751 5752 5753 5755 5757 5760 5763 5767
5744 5743 5742 5740 5739 5737 5735 5733 5730 5727 5725 5722 5719 5716 5715 5713 5713 5714 5715 5716 5718 5719 5722 5723 5725 5727 5729 5731 5733 5734 5736 5738 5739 5741 5742 5744 5746 5747 5749 5751 5753 5756 5759
5730 5731 5731 5730 5729 5727 5726 5724 5722 5720 5718 5715 5712 5710 5708 5706 5706 5706 5707 5709 5710 5712 5714 5716 5718 5720 5722 5724 5726 5728 5730 5731 5733 5734 5736 5737 5739 5740 5742 5744 5746 5749 5751
5715 5717 5718 5718 5718 5717 5717 5716 5714 5712 5711 5708 5706 5704 5702 5700 5699 5699 5700 5701 5703 5705 5707 5709 5711 5714 5716 5718 5720 5722 5724 5725 5727 5729 5730 5731 5732 5734 5736 5737 5739 5742 5744
5698 5701 5703 5705 5706 5706 5707 5706 5706 5704 5703 5701 5699 5697 5696 5694 5693 5693 5694 5695 5697 5698 5700 5703 5705 5707 5710 5712 5714 5716 5718 5720 5721 5723 5724 5725 5727 5728 5730 5732 5733 5735 5737
5680 5684 5687 5690 5692 5694 5696 5696 5696 5696 5695 5694 5692 5691 5689 5688 5688 5688 5688 5690 5691 5693 5695 5698 5700 5702 5703 5706 5708 5711 5713 5715 5716 5718 5719 5721 5723 5724 5725 5727 5728 5730 5731
5658 5664 5670 5674 5677 5681 5683 5685 5686 5687 5686 5686 5685 5684 5683 5682 5682 5682 5683 5684 5686 5688 5690 5693 5695 5696 5698 5700 5703 5705 5708 5710 5712 5714 5715 5717 5718 5720 5721 5722 5723 5725 5726
5635 5643 5650 5657 5661 5665 5670 5672 5675 5676 5677 5678 5678 5677 5677 5676 5677 5678 5678 5679 5681 5683 5686 5688 5690 5692 5694 5696 5699 5701 5703 5706 5708 5710 5711 5713 5714 5715 5716 5717 5718 5719 5720
5610 5619 5628 5637 5644 5650 5655 5659 5663 5665 5667 5669 5670 5670 5670 5670 5671 5672 5674 5675 5677 5679 5681 5683 5686 5688 5691 5693 5695 5698 5700 5703 5704 5706 5707 5709 5709 5710 5711 5712 5712 5713 5713
5585 5595 5606 5617 5626 5634 5640 5645 5651 5654 5657 5660 5661 5662 5663 5664 5666 5667 5669 5671 5673 5675 5678 5680 5682 5685 5687 5690 5692 5695 5698 5700 5701 5703 5704 5705 5705 5706 5706 5707 5707 5707 5706
Wind_Speed
37 37 37 37 38 39 40 40 41 40 39 38 38 37 37 36 37 36 34 32 29 27 26 25 25 25 25 24 23 21 19 18 17 18 18 18 19 19 19 18 18 17 16
35 35 35 35 36 36 37 38 39 40 40 39 37 36 36 37 37 37 36 35 34 33 31 29 28 28 27 27 26 25 24 22 21 19 19 18 19 19 19 20 20 20 19
31 31 32 33 34 36 36 37 37 38 38 39 38 37 36 36 36 36 37 36 35 33 33 32 32 31 30 30 29 28 27 27 25 24 22 21 20 20 20 20 21 21 21
29 30 31 32 34 36 37 38 38 38 38 38 38 38 38 37 36 36 36 35 35 35 35 35 35 34 33 33 33 32 31 31 30 29 27 26 24 22 22 21 22 22 23
28 28 30 31 33 35 37 38 38 39 39 39 39 39 38 39 37 37 37 36 36 35 35 35 36 36 36 35 35 35 35 35 34 33 32 31 29 27 25 24 23 23 24
24 25 27 29 32 35 37 38 39 39 39 39 39 38 38 38 37 37 37 37 37 36 35 34 34 35 35 36 37 37 38 38 38 38 36 35 34 33 30 28 26 25 25
19 21 23 26 29 32 35 38 40 40 40 40 40 38 37 36 36 36 37 37 37 36 36 35 35 35 36 37 38 39 40 40 40 41 40 40 39 38 36 34 30 28 27
18 19 21 24 26 29 32 35 38 40 41 41 41 40 38 37 36 35 36 37 37 37 37 36 36 35 36 37 38 38 40 40 41 42 42 42 42 41 40 39 35 32 29
19 19 21 23 25 27 29 32 35 37 39 41 42 41 40 37 36 35 35 36 36 36 36 36 35 35 36 37 37 38 39 39 41 42 43 43 44 43 42 41 39 36 33
22 22 23 24 26 27 29 30 31 34 36 39 40 41 40 39 38 36 36 35 36 37 37 36 35 35 35 37 37 38 38 40 40 41 42 43 44 44 44 44 42 40 37
25 25 25 25 26 27 28 29 30 31 33 35 37 39 40 39 38 37 36 36 36 37 37 37 36 36 35 36 36 36 37 38 39 39 40 41 43 44 44 44 44 43 40
27 26 25 26 27 28 29 29 29 29 30 32 34 36 37 38 38 37 36 36 37 36 37 36 35 35 35 35 35 34 35 36 37 37 38 39 40 42 42 43 45 45 43
28 27 26 26 27 28 29 29 29 29 29 30 31 33 35 36 37 37 36 36 36 36 35 35 35 34 34 34 35 34 34 35 36 36 36 37 39 40 40 41 42 44 44
29 28 27 27 27 27 28 29 28 28 28 28 29 31 32 33 35 35 35 35 35 35 35 34 35 35 35 34 34 34 34 34 35 35 36 36 37 39 39 38 39 41 42
31 29 28 27 26 27 27 28 28 28 28 27 27 28 30 31 33 34 35 35 35 35 35 34 34 34 34 34 33 32 32 33 33 33 34 34 35 37 39 40 39 40 40
32 30 29 27 26 26 27 27 28 28 27 27 26 26 27 29 30 32 33 34 34 35 35 34 34 34 33 32 31 30 31 32 32 32 32 32 32 32 35 39 40 41 42
34 32 30 28 27 26 27 27 28 28 27 27 26 26 26 26 28 30 31 32 33 34 34 34 34 33 31 30 29 29 29 29 29 29 30 30 30 30 32 35 38 41 43
37 34 31 29 28 27 27 27 28 28 28 27 26 25 25 24 25 27 29 31 32 33 33 33 33 32 31 29 29 28 29 29 28 28 28 29 29 28 29 31 34 38 42
42 38 34 32 30 29 28 28 28 28 28 27 26 25 24 24 24 25 26 28 29 30 31 31 31 31 30 30 29 29 28 29 28 28 28 28 27 27 29 30 30 33 36
48 43 39 36 34 32 30 29 29 29 28 27 26 25 23 22 23 24 24 25 26 27 27 27 28 29 29 29 29 29 29 27 27 27 26 25 24 25 26 26 27 29 32
53 48 44 41 38 35 33 31 31 30 28 27 25 24 22 21 21 21 21 23 24 25 26 27 27 28 28 28 28 27 27 25 24 22 21 20 20 20 21 22 23 25 26
59 55 50 47 43 40 37 34 33 32 29 27 26 24 22 21 20 21 22 24 25 25 25 26 27 27 28 27 26 25 23 21 20 19 18 18 17 18 18 19 21 23 24
67 61 55 52 48 45 41 37 35 34 31 28 26 24 23 21 21 21 22 23 25 25 25 26 26 27 27 25 23 21 20 19 17 17 17 17 18 18 18 19 20 22 23
72 67 62 57 53 49 45 40 38 35 32 29 26 24 22 22 20 20 21 22 24 24 24 24 23 22 22 21 19 18 17 16 16 16 16 15 15 16 16 18 19 21 23
71 68 63 58 55 50 46 42 39 37 33 30 27 24 22 21 20 19 20 20 20 20 20 19 19 18 18 17 17 16 15 14 13 13 13 14 15 16 17 18 20 22 23
62 62 60 56 53 49 45 42 40 37 34 30 27 24 21 21 21 20 21 21 20 19 18 17 17 17 17 16 15 14 13 12 11 11 12 13 13 14 15 16 18 19 21
Wind_Direction
278 279 278 277 277 276 275 274 273 272 273 273 273 272 273 274 273 274 271 267 263 259 256 254 254 253 253 252 251 250 250 249 246 243 242 241 241 241 242 243 244 245 246
280 280 281 281 281 280 280 278 277 273 273 273 273 273 272 271 273 273 271 267 265 262 257 254 253 253 253 252 251 250 249 249 248 246 244 244 244 244 244 245 245 246 246
283 284 284 284 283 284 283 282 281 278 275 273 273 273 272 271 271 271 270 268 267 263 260 256 253 252 252 252 252 250 249 249 248 247 246 245 246 247 248 248 248 247 246
287 288 288 286 285 284 283 281 281 279 277 276 274 274 272 272 273 271 270 271 269 266 263 260 256 253 252 252 251 251 250 249 249 248 248 247 247 248 249 251 251 250 248
291 292 292 290 288 286 285 283 281 279 277 275 273 272 272 271 271 270 269 268 267 267 266 263 261 257 251 250 251 251 250 250 250 250 249 249 249 249 250 252 253 252 249
293 295 296 294 291 288 285 282 280 278 277 276 273 272 270 270 270 269 268 267 265 265 264 263 261 258 254 252 251 251 251 250 250 250 249 249 249 250 250 251 252 253 251
296 299 301 299 295 291 286 282 278 276 275 274 273 272 270 269 269 268 267 265 264 263 262 261 259 257 255 254 253 252 250 250 250 250 250 249 250 249 249 250 250 251 252
301 305 308 308 305 299 293 286 280 276 273 272 271 271 270 269 268 266 265 264 264 262 261 260 259 259 258 256 254 253 252 251 250 249 250 249 249 249 248 248 248 248 249
302 307 311 313 314 310 304 296 287 279 274 271 269 268 268 268 267 265 264 264 264 263 262 260 259 259 259 257 254 253 253 253 251 250 250 249 249 249 247 246 247 246 246
297 302 307 312 315 315 311 304 296 287 278 272 269 268 267 266 265 265 264 263 264 264 263 261 261 259 259 258 256 253 252 253 252 250 250 249 249 248 246 245 244 244 243
292 297 301 307 313 316 316 312 306 296 286 277 271 268 266 265 265 263 263 262 262 263 263 263 262 259 259 258 256 255 254 253 252 251 250 250 250 249 247 245 242 241 242
288 294 300 304 310 314 317 315 311 304 294 284 276 271 267 265 263 262 261 261 262 262 263 264 263 260 259 258 255 256 255 253 251 251 252 251 250 249 249 245 241 240 240
287 292 297 303 308 313 316 316 313 310 301 291 282 275 269 265 262 261 260 260 262 262 262 262 262 261 260 259 257 257 256 253 252 252 253 251 249 248 248 244 240 238 238
287 290 294 300 305 309 314 316 315 313 307 297 288 279 272 267 263 260 259 259 261 262 261 261 261 261 260 259 258 257 257 255 252 254 254 253 252 249 245 241 238 235 236
286 289 293 297 302 307 311 315 316 314 310 302 294 284 276 269 264 260 259 259 260 260 261 261 260 260 259 257 257 257 255 253 253 253 255 257 254 249 244 239 235 231 231
284 286 290 294 299 303 308 312 315 315 312 306 299 289 279 270 264 260 258 258 259 259 259 259 259 259 257 256 255 255 253 252 253 254 256 258 257 254 247 240 235 230 229
282 284 287 290 295 299 304 308 312 313 312 308 302 293 284 275 266 260 257 256 256 255 255 255 255 254 252 252 252 252 252 252 253 255 257 257 257 256 251 245 240 235 232
279 281 284 287 291 295 299 303 306 309 308 306 302 293 285 278 268 260 255 252 252 253 252 252 251 248 248 249 247 248 251 252 255 255 257 260 260 258 255 250 247 242 240
275 277 280 283 287 291 295 298 301 304 304 304 301 293 286 277 268 260 254 251 249 249 248 248 246 245 245 244 246 248 252 254 258 260 262 262 261 261 257 253 251 249 247
271 273 276 279 283 287 290 293 295 298 299 299 297 292 285 276 267 260 253 249 248 245 243 244 242 242 243 245 247 249 254 258 259 261 262 260 258 259 257 254 252 251 251
267 269 272 275 279 282 285 288 290 291 293 293 292 289 283 275 268 258 252 248 246 244 243 241 240 241 241 244 245 250 253 254 253 254 255 253 252 253 254 254 255 255 256
264 265 268 271 273 277 279 281 283 284 285 285 284 282 278 272 265 256 253 250 245 239 237 238 239 239 238 238 242 246 247 245 243 244 248 249 250 252 253 255 256 258 259
263 263 264 266 268 272 273 274 276 275 277 277 276 275 271 267 265 258 253 247 240 234 236 237 239 237 236 235 237 238 238 236 239 244 248 250 253 255 256 258 260 262 264
262 261 261 262 263 265 266 266 268 267 268 269 268 267 265 261 257 255 249 243 237 233 235 236 235 234 232 228 230 231 232 235 240 243 245 250 253 258 261 265 268 270 271
259 257 256 255 256 257 258 258 259 259 260 260 259 259 258 253 248 247 243 239 237 234 233 229 228 226 223 223 225 227 227 229 233 238 245 253 260 265 269 273 275 276 277
255 252 249 247 246 247 248 249 250 250 251 251 251 251 250 245 241 241 239 235 231 229 227 224 221 220 218 217 217 219 222 225 231 239 249 259 266 271 276 278 280 282 283